Home > Time Zones > World Clock > Weather > U.S.A. > Hilo > Past weeks

Flag for U.S.A. Weather past 2 weeks in Hilo, Hawaii, U.S.A.

Now
78 °F

Passing clouds.


Feels Like: 81 °F
Forecast: 69 / 78 °F
Wind: No wind

Location: Hilo International Airport

Current Time: Jul 27, 2014 at 9:39:17 PM

Latest Report: Jul 27, 2014 at 8:53 PM


Visibility: 10 mi

Pressure: 30.04 "Hg

Humidity: 82%

Dew point: 72 °F

Location of HiloLocation

Historic Weather in Hilo — Graph

°F

Hilo temperature yesterday

Maximum temperature yesterday: 87 °F (at 12:53 PM)
Minimum temperature yesterday: 69 °F (at 5:53 AM)
Average temperature yesterday: 78 °F

Past Weeks' High & Low Weather Summary

 TemperatureHumidityPressure
High87 °F (Jul 26, 12:53 PM)100% (Jul 13, 7:15 AM)30.12 "Hg (Jul 13, 7:15 AM)
Low68 °F (Jul 12, 11:53 PM)55% (Jul 27, 10:53 AM)29.69 "Hg (Jul 17, 7:53 PM)
Average75 °F88%30.01 "Hg
* Reported Jul 12 7:53 PM — Jul 27 7:53 PM, Hilo, Weather by CustomWeather, © 2014

Note: Actual official high and low records may vary slightly from our data, if they occured in-between our weather recording intervals... More about our weather records

Advertising

Hilo weather history for previous 24 hours

 ConditionsComfort  
Time TempWeatherWind HumidityBarometerVisibility
7:53 PM
Jul 27
79 °FPassing clouds.3 mph79%30.02 "Hg10 mi
7:30 PM79 °FOvercast.3 mph79%30.02 "Hg10 mi
7:08 PM79 °FMostly cloudy.No wind79%30.01 "Hg10 mi
6:53 PM79 °FCloudy.No wind79%30.00 "Hg10 mi
5:53 PM80 °FScattered clouds.10 mph74%29.98 "Hg10 mi
4:53 PM82 °FPartly sunny.10 mph67%29.96 "Hg10 mi
3:53 PM85 °FSunny.10 mph61%29.96 "Hg10 mi
2:53 PM85 °FScattered clouds.10 mph59%29.98 "Hg10 mi
1:53 PM85 °FScattered clouds.15 mph65%30.00 "Hg10 mi
12:53 PM84 °FPartly sunny.15 mph61%30.00 "Hg10 mi
11:53 AM84 °FBroken clouds.10 mph65%30.00 "Hg10 mi
10:53 AM85 °FBroken clouds.6 mph55%30.01 "Hg10 mi
9:53 AM83 °FBroken clouds.5 mph65%30.02 "Hg10 mi
8:53 AM80 °FPartly sunny.7 mph76%30.03 "Hg10 mi
7:53 AM77 °FPartly sunny.3 mph71%30.01 "Hg10 mi
6:53 AM74 °FPartly sunny.8 mph76%29.98 "Hg10 mi
5:53 AM73 °FMostly cloudy.8 mph76%29.96 "Hg10 mi
4:53 AM73 °FOvercast.8 mph76%29.94 "Hg10 mi
3:53 AM73 °FOvercast.6 mph81%29.94 "Hg10 mi
2:53 AM74 °FOvercast.5 mph88%29.95 "Hg10 mi
1:53 AM75 °FOvercast.3 mph88%29.96 "Hg10 mi
12:53 AM74 °FPassing clouds.5 mph94%29.97 "Hg10 mi
11:53 PM
Jul 26
75 °FPassing clouds.5 mph90%29.99 "Hg10 mi
11:12 PM75 °FPartly cloudy.5 mph94%30.00 "Hg10 mi
11:04 PM75 °FPassing clouds.3 mph94%30.01 "Hg10 mi
10:53 PM76 °FPartly cloudy.No wind94%30.00 "Hg10 mi
9:53 PM77 °FMostly cloudy.3 mph90%30.00 "Hg10 mi
Weather by CustomWeather, © 2014

See weather overviewHow to use our weather pages